KC0VVH Weather Reports


time (UTC)temp
C
wind
direction
speed
KPH
gust
KPH
rain 1hr
cm
rain 24hr
cm
rain mn
cm
humidity
%
barometer
mb
20260901095412 15 0 0.0 0.0 0.00 0.00 0.00 89 1016.5
20260901094512 15 0 0.0 0.0 0.00 0.00 0.00 90 1016.5
20260901093612 15 0 0.0 0.0 0.00 0.00 0.00 90 1016.5
20260901092712 15 0 0.0 0.0 0.00 0.00 0.00 89 1016.5
20260901091812 15 0 0.0 0.0 0.00 0.00 0.00 88 1016.5
20260901090912 15 0 0.0 0.0 0.00 0.00 0.00 88 1016.5
20260901090012 15 0 0.0 0.0 0.00 0.00 0.00 86 1016.5
20260901085412 15 0 0.0 0.0 0.00 0.00 0.00 87 1016.5
20260901084513 16 0 0.0 0.0 0.00 0.00 0.00 87 1016.5
20260901083612 16 0 0.0 0.0 0.00 0.00 0.00 87 1016.5
20260901082713 16 0 0.0 0.0 0.00 0.00 0.00 87 1016.5
20260901081812 16 0 0.0 0.0 0.00 0.00 0.00 87 1016.5
20260901080933 15 0 0.0 0.0 0.00 0.00 0.00 87 1016.5
20260901080013 15 0 0.0 0.0 0.00 0.00 0.00 87 1016.5
20260901075412 15 0 0.0 0.0 0.00 0.00 0.00 86 1016.5
20260901074512 15 0 0.0 0.0 0.00 0.00 0.00 86 1016.5
20260901073613 15 0 0.0 0.0 0.00 0.00 0.00 86 1016.5
20260901072733 16 0 0.0 0.0 0.00 0.00 0.00 85 1016.5
20260901071812 16 0 0.0 0.0 0.00 0.00 0.00 84 1016.5
20260901070934 16 0 0.0 0.0 0.00 0.00 0.00 83 1016.5
20260901070013 16 0 0.0 0.0 0.00 0.00 0.00 82 1016.5
20260901065412 16 0 0.0 0.0 0.00 0.00 0.00 81 1016.5
20260901064512 16 0 0.0 0.0 0.00 0.00 0.00 80 1016.5
20260901063612 17 0 0.0 0.0 0.00 0.00 0.00 80 1016.5
20260901062712 17 0 0.0 0.0 0.00 0.00 0.00 79 1016.5
20260901061812 17 0 0.0 0.0 0.00 0.00 0.00 79 1016.5
20260901060912 16 0 0.0 0.0 0.00 0.00 0.00 81 1016.5
20260901060012 16 0 0.0 0.0 0.00 0.00 0.00 81 1016.5
20260901055434 16 0 0.0 0.0 0.00 0.00 0.00 80 1016.5
20260901054512 16 0 0.0 0.0 0.00 0.00 0.00 81 1016.5
20260901053612 16 0 0.0 0.0 0.00 0.00 0.00 81 1016.5
20260901052713 16 0 0.0 0.0 0.00 0.00 0.00 81 1016.5
20260901051812 17 0 0.0 0.0 0.00 0.00 0.00 80 1016.5
20260901050912 17 0 0.0 0.0 0.00 0.00 0.00 80 1016.5
20260901050012 17 0 0.0 0.0 0.00 0.00 0.00 80 1016.5
20260901045412 17 0 0.0 0.0 0.00 0.00 0.00 79 1016.5
20260901044512 17 0 0.0 0.0 0.00 0.00 0.00 79 1016.5
20260901043612 17 0 0.0 0.0 0.00 0.00 0.00 78 1016.5
20260901042712 18 0 0.0 0.0 0.00 0.00 0.00 78 1016.5
20260901041812 18 0 0.0 0.0 0.00 0.00 0.00 77 1016.5
20260901040933 18 0 0.0 0.0 0.00 0.00 0.00 76 1016.5
20260901040012 18 0 0.0 0.0 0.00 0.00 0.00 75 1016.5
20260901035412 18 0 0.0 0.0 0.00 0.00 0.00 75 1016.5
20260901034512 19 0 0.0 0.0 0.00 0.00 0.00 75 1016.5
20260901033613 19 0 0.0 0.0 0.00 0.00 0.00 69 1016.5
20260901032713 19 0 0.0 0.0 0.00 0.00 0.00 71 1016.5
20260901031812 19 0 0.0 0.0 0.00 0.00 0.00 69 1016.5
20260901030912 19 0 0.0 0.0 0.00 0.00 0.00 70 1016.5
20260901030012 20 0 0.0 0.0 0.00 0.00 0.00 67 1016.5
20260901025412 19 0 0.0 0.0 0.00 0.00 0.00 66 1016.5
20260901024533 19 0 0.0 0.0 0.00 0.00 0.00 67 1016.5
20260901023634 20 0 0.0 0.0 0.00 0.00 0.00 66 1016.5
20260901022712 20 0 0.0 0.0 0.00 0.00 0.00 66 1016.5
20260901021812 20 0 0.0 0.0 0.00 0.00 0.00 66 1016.5
20260901020912 20 0 0.0 0.0 0.00 0.00 0.00 66 1016.5
20260901020012 20 0 0.0 0.0 0.00 0.00 0.00 65 1016.5
20260901015412 20 0 0.0 0.0 0.00 0.00 0.00 65 1016.5
20260901014513 20 0 0.0 0.0 0.00 0.00 0.00 64 1016.5
20260901013613 20 0 0.0 0.0 0.00 0.00 0.00 64 1016.5
20260901012712 20 0 0.0 0.0 0.00 0.00 0.00 63 1016.5
20260901011813 20 0 0.0 0.0 0.00 0.00 0.00 62 1016.5
20260901010913 20 0 0.0 0.0 0.00 0.00 0.00 63 1016.5
20260901010013 20 0 0.0 0.0 0.00 0.00 0.00 62 1016.5
20260901005434 21 0 0.0 0.0 0.00 0.00 0.00 61 1016.5
20260901004513 21 0 0.0 0.0 0.00 0.00 0.00 59 1016.5
20260901003612 21 0 0.0 0.0 0.00 0.03 0.00 60 1016.5
20260901002712 21 0 0.0 0.0 0.00 0.03 0.00 60 1016.5
20260901001812 21 0 0.0 0.0 0.00 0.05 0.00 60 1016.5
20260901000913 21 0 0.0 0.0 0.00 0.13 0.00 61 1016.5
20260901000012 21 0 0.0 0.0 0.00 0.25 0.00 60 1016.5
20260831235412 21 0 0.0 0.0 0.00 0.33 0.00 60 1016.5
20260831234512 21 0 0.0 0.0 0.00 0.46 0.00 60 1016.5
20260831233613 21 0 0.0 0.0 0.00 0.51 0.00 60 1016.5
20260831232712 21 0 0.0 0.0 0.00 0.51 0.00 60 1016.5
20260831231812 21 0 0.0 1.6 0.00 0.51 0.00 60 1016.5
20260831230912 21 0 0.0 1.6 0.00 0.51 0.00 60 1016.5
20260831230013 21 37 0.0 4.8 0.00 0.51 0.00 60 1016.5
20260831225412 21 0 0.0 0.0 0.00 0.51 0.00 60 1016.5
20260831224513 21 38 0.0 6.4 0.00 0.51 0.00 59 1016.5
20260831223613 21 42 0.0 6.4 0.00 0.51 0.00 60 1016.5
20260831222712 21 31 0.0 12.9 0.00 0.51 0.00 59 1016.5
20260831221813 21 20 0.0 12.9 0.00 0.51 0.00 59 1016.5
20260831220913 21 15 0.0 8.0 0.00 0.51 0.00 59 1016.5
20260831220034 21 12 1.6 11.3 0.00 0.51 0.00 59 1016.5
20260831215413 21 20 1.6 11.3 0.00 0.51 0.00 59 1016.5
20260831214534 21 36 1.6 11.3 0.00 0.51 0.00 57 1016.5
20260831213634 22 4 1.6 11.3 0.00 0.51 0.00 56 1016.5
20260831212712 22 9 1.6 11.3 0.00 0.51 0.00 56 1016.5
20260831211812 22 9 1.6 8.0 0.00 0.51 0.00 54 1016.5
20260831210913 22 1 1.6 12.9 0.00 0.51 0.00 54 1016.5
20260831210013 22 3 1.6 14.5 0.00 0.51 0.00 53 1016.5
20260831205413 22 341 1.6 12.9 0.00 0.51 0.00 55 1016.5
20260831204533 22 305 1.6 16.1 0.00 0.51 0.00 53 1016.5
20260831203612 23 359 4.8 17.7 0.00 0.51 0.00 54 1016.5
20260831202713 23 344 1.6 14.5 0.00 0.51 0.00 53 1016.5
20260831201834 23 334 3.2 16.1 0.00 0.51 0.00 53 1016.5
20260831200934 23 335 4.8 16.1 0.00 0.51 0.00 54 1016.5
20260831200034 23 351 4.8 25.7 0.00 0.51 0.00 54 1016.5
20260831195413 22 354 4.8 25.7 0.00 0.51 0.00 55 1016.5
20260831194513 22 17 4.8 16.1 0.00 0.51 0.00 60 1016.5
20260831193613 22 23 3.2 16.1 0.00 0.51 0.00 61 1016.5
20260831192713 22 19 4.8 16.1 0.00 0.51 0.00 63 1016.5
20260831191813 22 14 3.2 16.1 0.00 0.51 0.00 62 1016.5
20260831190912 22 4 1.6 11.3 0.00 0.51 0.00 62 1016.5
20260831190013 22 29 1.6 8.0 0.00 0.51 0.00 62 1016.5
20260831185433 22 29 3.2 9.7 0.00 0.51 0.00 63 1016.5
20260831184513 21 23 3.2 12.9 0.00 0.51 0.00 61 1016.5
20260831183613 21 16 1.6 9.7 0.00 0.51 0.00 58 1016.5
20260831182713 21 237 1.6 8.0 0.00 0.51 0.00 59 1016.5
20260831181813 21 196 1.6 8.0 0.00 0.51 0.00 61 1016.5
20260831180934 21 196 1.6 8.0 0.00 0.51 0.00 61 1016.5
20260831180013 21 196 0.0 4.8 0.00 0.51 0.00 61 1016.5
20260831175412 21 196 0.0 4.8 0.00 0.51 0.00 61 1016.5
20260831174513 20 196 0.0 4.8 0.00 0.51 0.00 61 1016.5
20260831173613 20 196 0.0 8.0 0.00 0.51 0.00 62 1016.5
20260831172712 20 197 0.0 1.6 0.00 0.51 0.00 63 1016.5
20260831171812 20 197 0.0 1.6 0.00 0.51 0.00 62 1016.5
20260831170913 19 197 0.0 9.7 0.00 0.51 0.00 64 1016.5
20260831170013 19 197 3.2 9.7 0.00 0.51 0.00 64 1016.5
20260831165413 18 197 1.6 9.7 0.00 0.51 0.00 66 1016.5
20260831164512 18 197 0.0 6.4 0.00 0.51 0.00 67 1016.5
20260831163613 18 197 0.0 4.8 0.00 0.51 0.00 70 1016.5
20260831162713 18 197 1.6 8.0 0.00 0.51 0.00 70 1016.5
20260831161813 18 197 3.2 9.7 0.00 0.51 0.00 69 1016.5
20260831160934 17 197 3.2 9.7 0.00 0.51 0.00 71 1016.5
20260831160013 17 197 3.2 9.7 0.00 0.51 0.00 71 1016.5
20260831155413 17 197 1.6 9.7 0.00 0.51 0.00 70 1016.5
20260831154513 17 196 0.0 4.8 0.00 0.51 0.00 72 1016.5
20260831153613 17 197 0.0 6.4 0.00 0.51 0.00 75 1016.5
20260831152713 17 197 0.0 3.2 0.00 0.51 0.00 74 1016.5
20260831151812 17 211 0.0 8.0 0.00 0.51 0.00 75 1016.5
20260831150913 17 207 0.0 8.0 0.00 0.51 0.00 75 1016.5
20260831150013 17 132 0.0 6.4 0.00 0.51 0.00 75 1016.5
20260831145413 16 154 0.0 4.8 0.00 0.51 0.00 75 1016.5
20260831144513 16 0 0.0 0.0 0.00 0.51 0.00 76 1016.5
20260831143613 16 0 0.0 0.0 0.00 0.51 0.00 75 1016.5
20260831142713 16 0 0.0 0.0 0.00 0.51 0.00 76 1016.5
20260831141813 16 0 0.0 1.6 0.00 0.51 0.00 76 1016.5
20260831140913 16 0 0.0 0.0 0.00 0.51 0.00 76 1016.5
20260831140013 16 197 0.0 8.0 0.00 0.51 0.00 75 1016.5
20260831135413 16 198 0.0 8.0 0.00 0.51 0.00 75 1016.5
20260831134513 16 205 0.0 4.8 0.00 0.51 0.00 75 1016.5
20260831133613 16 0 0.0 0.0 0.00 0.51 0.00 77 1016.5
20260831132713 15 205 1.6 9.7 0.00 0.51 0.00 79 1016.5
20260831131813 14 205 0.0 6.4 0.00 0.51 0.00 84 1016.5
20260831130913 14 0 0.0 0.0 0.00 0.51 0.00 85 1016.5
20260831130013 14 0 0.0 0.0 0.00 0.51 0.00 84 1016.5
20260831125434 14 0 0.0 0.0 0.00 0.51 0.00 84 1016.5
20260831124513 15 0 0.0 0.0 0.00 0.51 0.00 84 1016.5
20260831123613 15 0 0.0 0.0 0.00 0.51 0.00 82 1016.5
20260831122713 15 0 0.0 0.0 0.00 0.51 0.00 81 1016.5
20260831121813 15 0 0.0 0.0 0.00 0.51 0.00 80 1016.5
20260831120913 15 0 0.0 0.0 0.00 0.51 0.00 79 1016.5
20260831120013 16 0 0.0 0.0 0.00 0.51 0.00 78 1016.5
20260831115413 16 0 0.0 0.0 0.00 0.51 0.00 76 1016.5
20260831114513 16 0 0.0 0.0 0.00 0.51 0.00 75 1016.5
20260831113613 16 0 0.0 0.0 0.00 0.51 0.00 74 1016.5
20260831112713 16 0 0.0 0.0 0.00 0.51 0.00 74 1016.5
20260831111812 16 0 0.0 0.0 0.00 0.53 0.00 73 1016.5
20260831110913 16 0 0.0 0.0 0.00 0.56 0.00 73 1016.5
20260831110013 16 0 0.0 0.0 0.00 0.56 0.00 73 1016.5
20260831105413 16 205 0.0 1.6 0.00 0.56 0.00 73 1016.5
20260831104513 16 205 1.6 11.3 0.00 0.64 0.00 72 1016.5
20260831103613 16 205 0.0 8.0 0.00 0.64 0.00 72 1016.5
20260831102713 17 205 0.0 9.7 0.00 0.64 0.00 72 1016.5
20260831101813 16 205 0.0 8.0 0.00 0.64 0.00 72 1016.5
20260831100913 16 208 1.6 11.3 0.00 0.64 0.00 72 1016.5
20260831100012 16 205 0.0 9.7 0.00 0.64 0.00 72 1016.5